When you browse on this site, cookies collect data to enhance your experience and personalize the content and advertising you see.
Visit our Privacy Policy to learn more. By continuing to use the site, you agree to this use of cookies and data.
  • en France
  • Liste des pays
  • À 7 jours
  • Température de l'eau
  • Carte météo
  • Widgets météo
  • user-avatar
    Se connecter

    Météo par heure à Marseille

    Ce jour, 27 Mai, Mercredi

    Heure Température Précipitation Vent Pression Humidité
    00:00 +22°C° 0 mm 1 m/s 764 mmHg 50%
    01:00 +21°C° 0 mm 2 m/s 764 mmHg 51%
    02:00 +21°C° 0 mm 2 m/s 764 mmHg 51%
    03:00 +21°C° 0 mm 3 m/s 764 mmHg 52%
    04:00 +21°C° 0 mm 3 m/s 765 mmHg 53%
    05:00 +21°C° 0 mm 4 m/s 765 mmHg 53%
    06:00 +22°C° 0 mm 5 m/s 765 mmHg 49%
    07:00 +23°C° 0 mm 5 m/s 766 mmHg 46%
    08:00 +23°C° 0 mm 5 m/s 766 mmHg 44%
    09:00 +24°C° 0 mm 6 m/s 766 mmHg 41%
    10:00 +26°C° 0 mm 6 m/s 767 mmHg 40%
    11:00 +26°C° 0 mm 6 m/s 767 mmHg 38%
    12:00 +26°C° 0 mm 7 m/s 767 mmHg 36%
    13:00 +26°C° 0 mm 6 m/s 767 mmHg 36%
    14:00 +26°C° 0 mm 6 m/s 766 mmHg 36%
    15:00 +26°C° 0 mm 6 m/s 766 mmHg 35%
    16:00 +25°C° 0 mm 5 m/s 766 mmHg 38%
    17:00 +23°C° 0 mm 5 m/s 766 mmHg 40%
    18:00 +23°C° 0 mm 4 m/s 766 mmHg 42%
    19:00 +22°C° 0 mm 3 m/s 766 mmHg 44%
    20:00 +21°C° 0 mm 2 m/s 766 mmHg 46%
    21:00 +21°C° 0 mm 1 m/s 766 mmHg 48%
    22:00 +21°C° 0 mm 1 m/s 766 mmHg 50%
    23:00 +21°C° 0 mm 1 m/s 766 mmHg 52%

    Demain, 28 Mai, Jeudi

    Heure Température Précipitation Vent Pression Humidité
    00:00 +20°C° 0 mm 1 m/s 766 mmHg 53%
    01:00 +20°C° 0 mm 1 m/s 766 mmHg 56%
    02:00 +19°C° 0 mm 2 m/s 765 mmHg 58%
    03:00 +19°C° 0 mm 2 m/s 765 mmHg 61%
    04:00 +19°C° 0 mm 2 m/s 765 mmHg 60%
    05:00 +20°C° 0 mm 2 m/s 764 mmHg 59%
    06:00 +20°C° 0 mm 2 m/s 764 mmHg 59%
    07:00 +21°C° 0 mm 3 m/s 764 mmHg 55%
    08:00 +22°C° 0 mm 3 m/s 764 mmHg 51%
    09:00 +25°C° 0 mm 4 m/s 764 mmHg 48%
    10:00 +25°C° 0 mm 4 m/s 763 mmHg 46%
    11:00 +26°C° 0 mm 5 m/s 763 mmHg 44%
    12:00 +27°C° 0 mm 6 m/s 763 mmHg 42%
    13:00 +27°C° 0 mm 6 m/s 762 mmHg 42%
    14:00 +27°C° 0 mm 6 m/s 762 mmHg 42%
    15:00 +27°C° 0 mm 7 m/s 761 mmHg 43%
    16:00 +26°C° 0 mm 6 m/s 761 mmHg 47%
    17:00 +24°C° 0 mm 6 m/s 760 mmHg 51%
    18:00 +23°C° 0 mm 5 m/s 760 mmHg 55%
    19:00 +22°C° 0 mm 5 m/s 760 mmHg 59%
    20:00 +21°C° 0 mm 5 m/s 760 mmHg 63%
    21:00 +20°C° 0 mm 4 m/s 760 mmHg 67%
    22:00 +20°C° 0 mm 4 m/s 760 mmHg 69%
    23:00 +20°C° 0 mm 4 m/s 759 mmHg 71%

    Après-demain, 29 Mai, Vendredi

    Heure Température Précipitation Vent Pression Humidité
    00:00 +19°C° 0 mm 4 m/s 759 mmHg 72%
    01:00 +19°C° 0 mm 3 m/s 759 mmHg 74%
    02:00 +19°C° 0 mm 3 m/s 759 mmHg 75%
    03:00 +19°C° 0 mm 3 m/s 758 mmHg 76%
    04:00 +19°C° 0 mm 3 m/s 758 mmHg 74%
    05:00 +19°C° 0 mm 3 m/s 758 mmHg 72%
    06:00 +20°C° 0 mm 3 m/s 758 mmHg 70%
    07:00 +21°C° 0 mm 2 m/s 757 mmHg 65%
    08:00 +24°C° 0 mm 2 m/s 757 mmHg 59%
    09:00 +25°C° 0 mm 1 m/s 757 mmHg 54%
    10:00 +25°C° 0 mm 2 m/s 757 mmHg 54%
    11:00 +25°C° 0 mm 2 m/s 757 mmHg 54%
    12:00 +26°C° 0 mm 3 m/s 757 mmHg 53%
    13:00 +25°C° 0.2 mm 3 m/s 757 mmHg 57%
    14:00 +25°C° 0.2 mm 4 m/s 756 mmHg 60%
    15:00 +23°C° 0.2 mm 4 m/s 756 mmHg 64%
    16:00 +23°C° 0.2 mm 5 m/s 756 mmHg 64%
    17:00 +22°C° 0.2 mm 5 m/s 756 mmHg 65%
    18:00 +22°C° 0.2 mm 6 m/s 757 mmHg 65%
    19:00 +21°C° 0 mm 5 m/s 757 mmHg 68%
    20:00 +20°C° 0 mm 5 m/s 757 mmHg 71%
    21:00 +20°C° 0 mm 4 m/s 758 mmHg 74%
    22:00 +19°C° 0 mm 4 m/s 758 mmHg 74%
    23:00 +19°C° 0 mm 3 m/s 758 mmHg 73%

    30 Mai, Samedi

    Heure Température Précipitation Vent Pression Humidité
    00:00 +19°C° 0 mm 3 m/s 758 mmHg 72%
    01:00 +18°C° 0 mm 3 m/s 757 mmHg 72%
    02:00 +18°C° 0 mm 3 m/s 757 mmHg 72%
    03:00 +18°C° 0 mm 3 m/s 757 mmHg 72%
    04:00 +18°C° 0 mm 3 m/s 757 mmHg 72%
    05:00 +19°C° 0 mm 3 m/s 757 mmHg 71%
    06:00 +19°C° 0 mm 2 m/s 757 mmHg 71%
    07:00 +20°C° 0 mm 2 m/s 757 mmHg 65%
    08:00 +23°C° 0 mm 2 m/s 757 mmHg 59%
    09:00 +24°C° 0 mm 2 m/s 757 mmHg 53%
    10:00 +24°C° 0.1 mm 2 m/s 757 mmHg 54%
    11:00 +24°C° 0.1 mm 3 m/s 757 mmHg 55%
    12:00 +23°C° 0.1 mm 4 m/s 757 mmHg 56%
    13:00 +23°C° 0 mm 4 m/s 757 mmHg 56%
    14:00 +23°C° 0 mm 4 m/s 757 mmHg 55%
    15:00 +23°C° 0 mm 4 m/s 756 mmHg 55%
    16:00 +22°C° 0 mm 3 m/s 756 mmHg 56%
    17:00 +22°C° 0 mm 3 m/s 756 mmHg 57%
    18:00 +21°C° 0 mm 2 m/s 756 mmHg 57%
    19:00 +21°C° 0 mm 2 m/s 756 mmHg 61%
    20:00 +20°C° 0 mm 2 m/s 757 mmHg 64%
    21:00 +19°C° 0 mm 2 m/s 757 mmHg 67%
    22:00 +19°C° 0 mm 2 m/s 757 mmHg 69%
    23:00 +19°C° 0 mm 2 m/s 757 mmHg 71%

    31 Mai, Dimanche

    Heure Température Précipitation Vent Pression Humidité
    00:00 +20°C° 0 mm 1 m/s 757 mmHg 73%
    01:00 +19°C° 0 mm 1 m/s 756 mmHg 74%
    02:00 +19°C° 0 mm 1 m/s 756 mmHg 75%
    03:00 +19°C° 0 mm 1 m/s 756 mmHg 76%
    04:00 +20°C° 0 mm 1 m/s 756 mmHg 74%
    05:00 +20°C° 0 mm 1 m/s 756 mmHg 72%
    06:00 +21°C° 0 mm 1 m/s 756 mmHg 70%
    07:00 +22°C° 0 mm 1 m/s 756 mmHg 65%
    08:00 +23°C° 0 mm 2 m/s 756 mmHg 59%
    09:00 +25°C° 0 mm 2 m/s 757 mmHg 54%
    10:00 +25°C° 0 mm 3 m/s 756 mmHg 53%
    11:00 +26°C° 0 mm 3 m/s 756 mmHg 51%
    12:00 +26°C° 0 mm 4 m/s 756 mmHg 50%
    13:00 +26°C° 0 mm 4 m/s 756 mmHg 50%
    14:00 +26°C° 0 mm 4 m/s 756 mmHg 51%
    15:00 +26°C° 0 mm 4 m/s 756 mmHg 52%
    16:00 +25°C° 0 mm 4 m/s 755 mmHg 55%
    17:00 +24°C° 0 mm 3 m/s 755 mmHg 59%
    18:00 +24°C° 0 mm 3 m/s 755 mmHg 62%
    19:00 +22°C° 0 mm 3 m/s 755 mmHg 66%
    20:00 +21°C° 0 mm 2 m/s 756 mmHg 71%
    21:00 +20°C° 0 mm 2 m/s 756 mmHg 75%
    22:00 +20°C° 0 mm 2 m/s 756 mmHg 76%
    23:00 +21°C° 0 mm 1 m/s 755 mmHg 77%

    1 Juin, Lundi

    Heure Température Précipitation Vent Pression Humidité
    00:00 +21°C° 0 mm 1 m/s 755 mmHg 78%
    01:00 +21°C° 0 mm 1 m/s 755 mmHg 79%
    02:00 +20°C° 0 mm 1 m/s 755 mmHg 80%
    03:00 +20°C° 0 mm 1 m/s 755 mmHg 82%
    04:00 +21°C° 0 mm 1 m/s 755 mmHg 79%
    05:00 +21°C° 0 mm 1 m/s 755 mmHg 77%
    06:00 +20°C° 0 mm 0 m/s 755 mmHg 75%
    07:00 +23°C° 0 mm 1 m/s 755 mmHg 68%
    08:00 +24°C° 0 mm 1 m/s 755 mmHg 62%
    09:00 +26°C° 0 mm 2 m/s 754 mmHg 55%
    10:00 +26°C° 0 mm 2 m/s 754 mmHg 54%
    11:00 +27°C° 0 mm 3 m/s 754 mmHg 54%
    12:00 +27°C° 0 mm 4 m/s 754 mmHg 54%
    13:00 +27°C° 0 mm 4 m/s 754 mmHg 55%
    14:00 +27°C° 0 mm 4 m/s 754 mmHg 56%
    15:00 +27°C° 0 mm 4 m/s 754 mmHg 57%
    16:00 +26°C° 0 mm 4 m/s 754 mmHg 61%
    17:00 +25°C° 0 mm 4 m/s 754 mmHg 64%
    18:00 +25°C° 0 mm 4 m/s 754 mmHg 68%
    19:00 +24°C° 0 mm 3 m/s 754 mmHg 71%
    20:00 +23°C° 0 mm 2 m/s 754 mmHg 75%
    21:00 +21°C° 0 mm 2 m/s 754 mmHg 79%
    22:00 +21°C° 0 mm 2 m/s 754 mmHg 80%
    23:00 +21°C° 0 mm 3 m/s 754 mmHg 82%
    Voir plus